This is the latest recevied weather packets stored in our database for station/object KE1THD. If no packets are shown the sender has not sent any weather packets the latest 10 day(s).
| Time | Temp. | Humidity | Pressure | Rain* | Wind** | Luminosity | Snow |
|---|---|---|---|---|---|---|---|
| 1777425295 | 15° C | 52% | 1013.8 hPa | 0 mm | - | 0 W/m² | - |
| 1777424993 | 15° C | 52% | 1013.7 hPa | 0 mm | - | 0 W/m² | - |
| 1777424688 | 15° C | 52% | 1013.6 hPa | 0 mm | - | 0 W/m² | - |
| 1777424382 | 15° C | 52% | 1013.6 hPa | 0 mm | - | 0 W/m² | - |
| 1777424078 | 15° C | 52% | 1013.9 hPa | 0 mm | - | 0 W/m² | - |
| 1777423777 | 15° C | 52% | 1013.6 hPa | 0 mm | - | 0 W/m² | - |
| 1777423473 | 15° C | 53% | 1013.6 hPa | 0 mm | - | 1 W/m² | - |
| 1777423167 | 15° C | 52% | 1013.6 hPa | 0 mm | - | 3 W/m² | - |
| 1777422861 | 15.56° C | 52% | 1013.5 hPa | 0 mm | - | 4 W/m² | - |
| 1777422558 | 15.56° C | 52% | 1013.3 hPa | 0 mm | - | 7 W/m² | - |
| 1777422254 | 15.56° C | 51% | 1013.4 hPa | 0 mm | - | 10 W/m² | - |
| 1777421953 | 15.56° C | 50% | 1013.3 hPa | 0 mm | - | 16 W/m² | - |
| 1777421649 | 15.56° C | 49% | 1013.4 hPa | 0 mm | - | 23 W/m² | - |
| 1777421343 | 16.11° C | 50% | 1013.6 hPa | 0 mm | - | 26 W/m² | - |
| 1777421040 | 16.11° C | 49% | 1013.3 hPa | 0 mm | - | 35 W/m² | - |
| 1777420736 | 16.11° C | 49% | 1013.5 hPa | 0 mm | - | 45 W/m² | - |
| 1777420433 | 16.11° C | 48% | 1013.3 hPa | 0 mm | - | 52 W/m² | - |
| 1777420130 | 16.11° C | 47% | 1013.5 hPa | 0 mm | - | 63 W/m² | - |
| 1777419825 | 16.11° C | 46% | 1013.6 hPa | 0 mm | - | 56 W/m² | - |
| 1777419523 | 16.11° C | 46% | 1013.6 hPa | 0 mm | - | 61 W/m² | - |
| 1777419222 | 16.67° C | 47% | 1013.6 hPa | 0 mm | - | 81 W/m² | - |
| 1777418918 | 16.67° C | 46% | 1013.8 hPa | 0 mm | - | 104 W/m² | - |
| 1777418614 | 16.67° C | 48% | 1013.6 hPa | 0 mm | - | 136 W/m² | - |
| 1777418311 | 16.67° C | 47% | 1013.7 hPa | 0 mm | - | 97 W/m² | - |
| 1777418006 | 16.67° C | 47% | 1013.6 hPa | 0 mm | - | 83 W/m² | - |
* Rain latest hour (hover to see other rain measurements)
** Current wind speed in m/s (hover to see current wind gust speed)